Year,Month,Day,Hour,Minute,Value (Times are PST for temperature in C)
2014,06,05,00,00,12.70
2014,06,05,00,01,12.70
2014,06,05,00,02,12.70
2014,06,05,00,03,12.70
2014,06,05,00,04,12.60
2014,06,05,00,05,12.60
2014,06,05,00,06,12.60
2014,06,05,00,07,12.60
2014,06,05,00,08,12.60
2014,06,05,00,09,12.60
2014,06,05,00,10,12.60
2014,06,05,00,11,12.60
2014,06,05,00,12,12.60
2014,06,05,00,13,12.60
2014,06,05,00,14,12.60
2014,06,05,00,15,12.60
2014,06,05,00,16,12.60
2014,06,05,00,17,12.60
2014,06,05,00,18,12.60
2014,06,05,00,19,12.60
2014,06,05,00,20,12.50
2014,06,05,00,21,12.50
2014,06,05,00,22,12.50
2014,06,05,00,23,12.50
2014,06,05,00,24,12.50
2014,06,05,00,25,12.50
2014,06,05,00,26,12.40
2014,06,05,00,27,12.40
2014,06,05,00,28,12.40
2014,06,05,00,29,12.40
2014,06,05,00,30,12.40
2014,06,05,00,31,12.40
2014,06,05,00,32,12.40
2014,06,05,00,33,12.40
2014,06,05,00,34,12.40
2014,06,05,00,35,12.40
2014,06,05,00,36,12.30
2014,06,05,00,37,12.30
2014,06,05,00,38,12.30
2014,06,05,00,39,12.30
2014,06,05,00,40,12.30
2014,06,05,00,41,12.30
2014,06,05,00,42,12.30
2014,06,05,00,43,12.30
2014,06,05,00,44,12.30
2014,06,05,00,45,12.30
2014,06,05,00,46,12.30
2014,06,05,00,47,12.30
2014,06,05,00,48,12.30
2014,06,05,00,49,12.30
2014,06,05,00,50,12.30
2014,06,05,00,51,12.30
2014,06,05,00,52,12.30
2014,06,05,00,53,12.30
2014,06,05,00,54,12.30
2014,06,05,00,55,12.30
2014,06,05,00,56,12.30
2014,06,05,00,57,12.40
2014,06,05,00,58,12.40
2014,06,05,00,59,12.40
2014,06,05,01,00,12.40
2014,06,05,01,01,12.40
2014,06,05,01,02,12.50
2014,06,05,01,03,12.50
2014,06,05,01,04,12.50
2014,06,05,01,05,12.50
2014,06,05,01,06,12.50
2014,06,05,01,07,12.50
2014,06,05,01,08,12.50
2014,06,05,01,09,12.50
2014,06,05,01,10,12.50
2014,06,05,01,11,12.50
2014,06,05,01,12,12.50
2014,06,05,01,13,12.40
2014,06,05,01,14,12.40
2014,06,05,01,15,12.40
2014,06,05,01,16,12.40
2014,06,05,01,17,12.40
2014,06,05,01,18,12.40
2014,06,05,01,19,12.40
2014,06,05,01,20,12.40
2014,06,05,01,21,12.40
2014,06,05,01,22,12.40
2014,06,05,01,23,12.50
2014,06,05,01,24,12.50
2014,06,05,01,25,12.50
2014,06,05,01,26,12.50
2014,06,05,01,27,12.50
2014,06,05,01,28,12.60
2014,06,05,01,29,12.60
2014,06,05,01,30,12.60
2014,06,05,01,31,12.60
2014,06,05,01,32,12.60
2014,06,05,01,33,12.60
2014,06,05,01,34,12.70
2014,06,05,01,35,12.70
2014,06,05,01,36,12.70
2014,06,05,01,37,12.70
2014,06,05,01,38,12.70
2014,06,05,01,39,12.70
2014,06,05,01,40,12.70
2014,06,05,01,41,12.80
2014,06,05,01,42,12.80
2014,06,05,01,43,12.80
2014,06,05,01,44,12.80
2014,06,05,01,45,12.80
2014,06,05,01,46,12.80
2014,06,05,01,47,12.80
2014,06,05,01,48,12.80
2014,06,05,01,49,12.90
2014,06,05,01,50,12.90
2014,06,05,01,51,12.90
2014,06,05,01,52,12.90
2014,06,05,01,53,12.90
2014,06,05,01,54,12.90
2014,06,05,01,55,12.90
2014,06,05,01,56,12.90
2014,06,05,01,57,13.00
2014,06,05,01,58,13.00
2014,06,05,01,59,13.00
2014,06,05,02,00,13.00
2014,06,05,02,01,13.00
2014,06,05,02,02,13.10
2014,06,05,02,03,13.10
2014,06,05,02,04,13.10
2014,06,05,02,05,13.10
2014,06,05,02,06,13.10
2014,06,05,02,07,13.10
2014,06,05,02,08,13.10
2014,06,05,02,09,13.10
2014,06,05,02,10,13.10
2014,06,05,02,11,13.10
2014,06,05,02,12,13.20
2014,06,05,02,13,13.20
2014,06,05,02,14,13.20
2014,06,05,02,15,13.20
2014,06,05,02,16,13.20
2014,06,05,02,17,13.20
2014,06,05,02,18,13.20
2014,06,05,02,19,13.20
2014,06,05,02,20,13.20
2014,06,05,02,21,13.20
2014,06,05,02,22,13.20
2014,06,05,02,23,13.20
2014,06,05,02,24,13.20
2014,06,05,02,25,13.20
2014,06,05,02,26,13.20
2014,06,05,02,27,13.20
2014,06,05,02,28,13.20
2014,06,05,02,29,13.20
2014,06,05,02,30,13.20
2014,06,05,02,31,13.20
2014,06,05,02,32,13.20
2014,06,05,02,33,13.20
2014,06,05,02,34,13.20
2014,06,05,02,35,13.20
2014,06,05,02,36,13.20
2014,06,05,02,37,13.20
2014,06,05,02,38,13.20
2014,06,05,02,39,13.20
2014,06,05,02,40,13.20
2014,06,05,02,41,13.20
2014,06,05,02,42,13.20
2014,06,05,02,43,13.20
2014,06,05,02,44,13.10
2014,06,05,02,45,13.10
2014,06,05,02,46,13.10
2014,06,05,02,47,13.10
2014,06,05,02,48,13.10
2014,06,05,02,49,13.10
2014,06,05,02,50,13.10
2014,06,05,02,51,13.10
2014,06,05,02,52,13.10
2014,06,05,02,53,13.10
2014,06,05,02,54,13.10
2014,06,05,02,55,13.10
2014,06,05,02,56,13.10
2014,06,05,02,57,13.10
2014,06,05,02,58,13.10
2014,06,05,02,59,13.00
2014,06,05,03,00,13.00
2014,06,05,03,01,13.00
2014,06,05,03,02,13.00
2014,06,05,03,03,13.00
2014,06,05,03,04,13.00
2014,06,05,03,05,12.90
2014,06,05,03,06,12.90
2014,06,05,03,07,12.90
2014,06,05,03,08,12.90
2014,06,05,03,09,12.90
2014,06,05,03,10,12.90
2014,06,05,03,11,12.90
2014,06,05,03,12,12.80
2014,06,05,03,13,12.80
2014,06,05,03,14,12.80
2014,06,05,03,15,12.80
2014,06,05,03,16,12.80
2014,06,05,03,17,12.80
2014,06,05,03,18,12.80
2014,06,05,03,19,12.80
2014,06,05,03,20,12.80
2014,06,05,03,21,12.70
2014,06,05,03,22,12.70
2014,06,05,03,23,12.70
2014,06,05,03,24,12.70
2014,06,05,03,25,12.70
2014,06,05,03,26,12.60
2014,06,05,03,27,12.60
2014,06,05,03,28,12.60
2014,06,05,03,29,12.60
2014,06,05,03,30,12.50
2014,06,05,03,31,12.50
2014,06,05,03,32,12.50
2014,06,05,03,33,12.40
2014,06,05,03,34,12.40
2014,06,05,03,35,12.40
2014,06,05,03,36,12.30
2014,06,05,03,37,12.30
2014,06,05,03,38,12.30
2014,06,05,03,39,12.20
2014,06,05,03,40,12.20
2014,06,05,03,41,12.20
2014,06,05,03,42,12.20
2014,06,05,03,43,12.20
2014,06,05,03,44,12.10
2014,06,05,03,45,12.10
2014,06,05,03,46,12.10
2014,06,05,03,47,12.10
2014,06,05,03,48,12.00
2014,06,05,03,49,12.00
2014,06,05,03,50,12.00
2014,06,05,03,51,11.90
2014,06,05,03,52,11.90
2014,06,05,03,53,11.90
2014,06,05,03,54,11.90
2014,06,05,03,55,11.90
2014,06,05,03,56,11.80
2014,06,05,03,57,11.80
2014,06,05,03,58,11.80
2014,06,05,03,59,11.80
2014,06,05,04,00,11.80
2014,06,05,04,01,11.80
2014,06,05,04,02,11.80
2014,06,05,04,03,11.70
2014,06,05,04,04,11.70
2014,06,05,04,05,11.70
2014,06,05,04,06,11.70
2014,06,05,04,07,11.70
2014,06,05,04,08,11.70
2014,06,05,04,09,11.70
2014,06,05,04,10,11.60
2014,06,05,04,11,11.60
2014,06,05,04,12,11.60
2014,06,05,04,13,11.60
2014,06,05,04,14,11.60
2014,06,05,04,15,11.50
2014,06,05,04,16,11.50
2014,06,05,04,17,11.50
2014,06,05,04,18,11.40
2014,06,05,04,19,11.40
2014,06,05,04,20,11.40
2014,06,05,04,21,11.40
2014,06,05,04,22,11.40
2014,06,05,04,23,11.40
2014,06,05,04,24,11.30
2014,06,05,04,25,11.30
2014,06,05,04,26,11.30
2014,06,05,04,27,11.30
2014,06,05,04,28,11.30
2014,06,05,04,29,11.30
2014,06,05,04,30,11.20
2014,06,05,04,31,11.20
2014,06,05,04,32,11.20
2014,06,05,04,33,11.20
2014,06,05,04,34,11.20
2014,06,05,04,35,11.10
2014,06,05,04,36,11.10
2014,06,05,04,37,11.10
2014,06,05,04,38,11.10
2014,06,05,04,39,11.10
2014,06,05,04,40,11.00
2014,06,05,04,41,11.00
2014,06,05,04,42,11.00
2014,06,05,04,43,11.00
2014,06,05,04,44,10.90
2014,06,05,04,45,10.90
2014,06,05,04,46,10.90
2014,06,05,04,47,10.90
2014,06,05,04,48,10.90
2014,06,05,04,49,10.90
2014,06,05,04,50,10.90
2014,06,05,04,51,10.90
2014,06,05,04,52,10.90
2014,06,05,04,53,10.90
2014,06,05,04,54,10.90
2014,06,05,04,55,10.90
2014,06,05,04,56,10.90
2014,06,05,04,57,10.80
2014,06,05,04,58,10.80
2014,06,05,04,59,10.80
2014,06,05,05,00,10.80
2014,06,05,05,01,10.80
2014,06,05,05,02,10.80
2014,06,05,05,03,10.80
2014,06,05,05,04,10.80
2014,06,05,05,05,10.80
2014,06,05,05,06,10.80
2014,06,05,05,07,10.80
2014,06,05,05,08,10.80
2014,06,05,05,09,10.80
2014,06,05,05,10,10.80
2014,06,05,05,11,10.80
2014,06,05,05,12,10.80
2014,06,05,05,13,10.80
2014,06,05,05,14,10.80
2014,06,05,05,15,10.80
2014,06,05,05,16,10.80
2014,06,05,05,17,10.80
2014,06,05,05,18,10.80
2014,06,05,05,19,10.80
2014,06,05,05,20,10.80
2014,06,05,05,21,10.80
2014,06,05,05,22,10.70
2014,06,05,05,23,10.70
2014,06,05,05,24,10.70
2014,06,05,05,25,10.70
2014,06,05,05,26,10.70
2014,06,05,05,27,10.70
2014,06,05,05,28,10.70
2014,06,05,05,29,10.70
2014,06,05,05,30,10.70
2014,06,05,05,31,10.70
2014,06,05,05,32,10.70
2014,06,05,05,33,10.70
2014,06,05,05,34,10.70
2014,06,05,05,35,10.70
2014,06,05,05,36,10.70
2014,06,05,05,37,10.70
2014,06,05,05,38,10.60
2014,06,05,05,39,10.60
2014,06,05,05,40,10.60
2014,06,05,05,41,10.60
2014,06,05,05,42,10.60
2014,06,05,05,43,10.60
2014,06,05,05,44,10.60
2014,06,05,05,45,10.60
2014,06,05,05,46,10.60
2014,06,05,05,47,10.60
2014,06,05,05,48,10.60
2014,06,05,05,49,10.60
2014,06,05,05,50,10.60
2014,06,05,05,51,10.50
2014,06,05,05,52,10.50
2014,06,05,05,53,10.50
2014,06,05,05,54,10.50
2014,06,05,05,55,10.50
2014,06,05,05,56,10.50
2014,06,05,05,57,10.50
2014,06,05,05,58,10.50
2014,06,05,05,59,10.50
2014,06,05,06,00,10.50
2014,06,05,06,01,10.50
2014,06,05,06,02,10.50
2014,06,05,06,03,10.50
2014,06,05,06,04,10.50
2014,06,05,06,05,10.50
2014,06,05,06,06,10.50
2014,06,05,06,07,10.50
2014,06,05,06,08,10.50
2014,06,05,06,09,10.50
2014,06,05,06,10,10.50
2014,06,05,06,11,10.50
2014,06,05,06,12,10.50
2014,06,05,06,13,10.50
2014,06,05,06,14,10.60
2014,06,05,06,15,10.60
2014,06,05,06,16,10.60
2014,06,05,06,17,10.60
2014,06,05,06,18,10.60
2014,06,05,06,19,10.60
2014,06,05,06,20,10.60
2014,06,05,06,21,10.60
2014,06,05,06,22,10.60
2014,06,05,06,23,10.60
2014,06,05,06,24,10.60
2014,06,05,06,25,10.60
2014,06,05,06,26,10.60
2014,06,05,06,27,10.60
2014,06,05,06,28,10.60
2014,06,05,06,29,10.60
2014,06,05,06,30,10.60
2014,06,05,06,31,10.60
2014,06,05,06,32,10.60
2014,06,05,06,33,10.60
2014,06,05,06,34,10.60
2014,06,05,06,35,10.60
2014,06,05,06,36,10.60
2014,06,05,06,37,10.60
2014,06,05,06,38,10.60
2014,06,05,06,39,10.60
2014,06,05,06,40,10.60
2014,06,05,06,41,10.60
2014,06,05,06,42,10.60
2014,06,05,06,43,10.60
2014,06,05,06,44,10.60
2014,06,05,06,45,10.60
2014,06,05,06,46,10.60
2014,06,05,06,47,10.60
2014,06,05,06,48,10.60
2014,06,05,06,49,10.70
2014,06,05,06,50,10.70
2014,06,05,06,51,10.70
2014,06,05,06,52,10.70
2014,06,05,06,53,10.70
2014,06,05,06,54,10.70
2014,06,05,06,55,10.70
2014,06,05,06,56,10.70
2014,06,05,06,57,10.80
2014,06,05,06,58,10.80
2014,06,05,06,59,10.80
2014,06,05,07,00,10.80
2014,06,05,07,01,10.80
2014,06,05,07,02,10.80
2014,06,05,07,03,10.90
2014,06,05,07,04,10.90
2014,06,05,07,05,10.90
2014,06,05,07,06,10.90
2014,06,05,07,07,11.00
2014,06,05,07,08,11.00
2014,06,05,07,09,11.10
2014,06,05,07,10,11.10
2014,06,05,07,11,11.20
2014,06,05,07,12,11.20
2014,06,05,07,13,11.30
2014,06,05,07,14,11.40
2014,06,05,07,15,11.40
2014,06,05,07,16,11.50
2014,06,05,07,17,11.60
2014,06,05,07,18,11.60
2014,06,05,07,19,11.60
2014,06,05,07,20,11.70
2014,06,05,07,21,11.70
2014,06,05,07,22,11.80
2014,06,05,07,23,11.80
2014,06,05,07,24,11.90
2014,06,05,07,25,11.90
2014,06,05,07,26,12.00
2014,06,05,07,27,12.10
2014,06,05,07,28,12.10
2014,06,05,07,29,12.10
2014,06,05,07,30,12.10
2014,06,05,07,31,12.20
2014,06,05,07,32,12.20
2014,06,05,07,33,12.20
2014,06,05,07,34,12.30
2014,06,05,07,35,12.30
2014,06,05,07,36,12.30
2014,06,05,07,37,12.30
2014,06,05,07,38,12.30
2014,06,05,07,39,12.20
2014,06,05,07,40,12.20
2014,06,05,07,41,12.20
2014,06,05,07,42,12.30
2014,06,05,07,43,12.30
2014,06,05,07,44,12.30
2014,06,05,07,45,12.40
2014,06,05,07,46,12.40
2014,06,05,07,47,12.50
2014,06,05,07,48,12.50
2014,06,05,07,49,12.60
2014,06,05,07,50,12.60
2014,06,05,07,51,12.60
2014,06,05,07,52,12.60
2014,06,05,07,53,12.60
2014,06,05,07,54,12.60
2014,06,05,07,55,12.70
2014,06,05,07,56,12.70
2014,06,05,07,57,12.70
2014,06,05,07,58,12.80
2014,06,05,07,59,12.80
2014,06,05,08,00,12.90
2014,06,05,08,01,12.90
2014,06,05,08,02,13.00
2014,06,05,08,03,13.00
2014,06,05,08,04,13.10
2014,06,05,08,05,13.20
2014,06,05,08,06,13.20
2014,06,05,08,07,13.20
2014,06,05,08,08,13.20
2014,06,05,08,09,13.20
2014,06,05,08,10,13.20
2014,06,05,08,11,13.10
2014,06,05,08,12,13.10
2014,06,05,08,13,13.10
2014,06,05,08,14,13.00
2014,06,05,08,15,13.00
2014,06,05,08,16,12.90
2014,06,05,08,17,12.90
2014,06,05,08,18,12.90
2014,06,05,08,19,12.90
2014,06,05,08,20,12.90
2014,06,05,08,21,12.90
2014,06,05,08,22,12.90
2014,06,05,08,23,12.90
2014,06,05,08,24,13.00
2014,06,05,08,25,13.00
2014,06,05,08,26,13.00
2014,06,05,08,27,12.90
2014,06,05,08,28,13.00
2014,06,05,08,29,13.00
2014,06,05,08,30,13.00
2014,06,05,08,31,13.10
2014,06,05,08,32,13.10
2014,06,05,08,33,13.10
2014,06,05,08,34,13.10
2014,06,05,08,35,13.10
2014,06,05,08,36,13.20
2014,06,05,08,37,13.20
2014,06,05,08,38,13.20
2014,06,05,08,39,13.30
2014,06,05,08,40,13.30
2014,06,05,08,41,13.30
2014,06,05,08,42,13.40
2014,06,05,08,43,13.40
2014,06,05,08,44,13.40
2014,06,05,08,45,13.50
2014,06,05,08,46,13.50
2014,06,05,08,47,13.50
2014,06,05,08,48,13.50
2014,06,05,08,49,13.50
2014,06,05,08,50,13.50
2014,06,05,08,51,13.60
2014,06,05,08,52,13.60
2014,06,05,08,53,13.70
2014,06,05,08,54,13.70
2014,06,05,08,55,13.80
2014,06,05,08,56,13.80
2014,06,05,08,57,13.80
2014,06,05,08,58,13.90
2014,06,05,08,59,13.90
2014,06,05,09,00,14.00
2014,06,05,09,01,14.10
2014,06,05,09,02,14.20
2014,06,05,09,03,14.30
2014,06,05,09,04,14.30
2014,06,05,09,05,14.40
2014,06,05,09,06,14.50
2014,06,05,09,07,14.50
2014,06,05,09,08,14.60
2014,06,05,09,09,14.60
2014,06,05,09,10,14.70
2014,06,05,09,11,14.70
2014,06,05,09,12,14.70
2014,06,05,09,13,14.80
2014,06,05,09,14,14.80
2014,06,05,09,15,14.80
2014,06,05,09,16,14.80
2014,06,05,09,17,14.90
2014,06,05,09,18,14.90
2014,06,05,09,19,15.00
2014,06,05,09,20,15.00
2014,06,05,09,21,15.10
2014,06,05,09,22,15.10
2014,06,05,09,23,15.20
2014,06,05,09,24,15.20
2014,06,05,09,25,15.20
2014,06,05,09,26,15.20
2014,06,05,09,27,15.30
2014,06,05,09,28,15.30
2014,06,05,09,29,15.30
2014,06,05,09,30,15.30
2014,06,05,09,31,15.30
2014,06,05,09,32,15.40
2014,06,05,09,33,15.40
2014,06,05,09,34,15.40
2014,06,05,09,35,15.40
2014,06,05,09,36,15.50
2014,06,05,09,37,15.40
2014,06,05,09,38,15.50
2014,06,05,09,39,15.50
2014,06,05,09,40,15.60
2014,06,05,09,41,15.50
2014,06,05,09,42,15.50
2014,06,05,09,43,15.50
2014,06,05,09,44,15.50
2014,06,05,09,45,15.50
2014,06,05,09,46,15.50
2014,06,05,09,47,15.60
2014,06,05,09,48,15.60
2014,06,05,09,49,15.70
2014,06,05,09,50,15.70
2014,06,05,09,51,15.80
2014,06,05,09,52,15.80
2014,06,05,09,53,15.80
2014,06,05,09,54,15.80
2014,06,05,09,55,15.80
2014,06,05,09,56,15.80
2014,06,05,09,57,15.80
2014,06,05,09,58,15.80
2014,06,05,09,59,15.80
2014,06,05,10,00,15.80
2014,06,05,10,01,15.80
2014,06,05,10,02,15.80
2014,06,05,10,03,15.90
2014,06,05,10,04,15.90
2014,06,05,10,05,15.90
2014,06,05,10,06,16.00
2014,06,05,10,07,16.00
2014,06,05,10,08,16.00
2014,06,05,10,09,16.10
2014,06,05,10,10,16.10
2014,06,05,10,11,16.10
2014,06,05,10,12,16.10
2014,06,05,10,13,16.10
2014,06,05,10,14,16.10
2014,06,05,10,15,16.20
2014,06,05,10,16,16.20
2014,06,05,10,17,16.30
2014,06,05,10,18,16.30
2014,06,05,10,19,16.40
2014,06,05,10,20,16.40
2014,06,05,10,21,16.40
2014,06,05,10,22,16.50
2014,06,05,10,23,16.50
2014,06,05,10,24,16.60
2014,06,05,10,25,16.50
2014,06,05,10,26,16.50
2014,06,05,10,27,16.50
2014,06,05,10,28,16.40
2014,06,05,10,29,16.40
2014,06,05,10,30,16.40
2014,06,05,10,31,16.40
2014,06,05,10,32,16.40
2014,06,05,10,33,16.40
2014,06,05,10,34,16.50
2014,06,05,10,35,16.50
2014,06,05,10,36,16.60
2014,06,05,10,37,16.60
2014,06,05,10,38,16.70
2014,06,05,10,39,16.70
2014,06,05,10,40,16.70
2014,06,05,10,41,16.80
2014,06,05,10,42,16.80
2014,06,05,10,43,16.80
2014,06,05,10,44,16.80
2014,06,05,10,45,16.80
2014,06,05,10,46,16.80
2014,06,05,10,47,16.80
2014,06,05,10,48,16.90
2014,06,05,10,49,16.90
2014,06,05,10,50,16.90
2014,06,05,10,51,16.90
2014,06,05,10,52,16.90
2014,06,05,10,53,16.90
2014,06,05,10,54,16.90
2014,06,05,10,55,16.90
2014,06,05,10,56,16.80
2014,06,05,10,57,16.70
2014,06,05,10,58,16.70
2014,06,05,10,59,16.70
2014,06,05,11,00,16.70
2014,06,05,11,01,16.70
2014,06,05,11,02,16.70
2014,06,05,11,03,16.70
2014,06,05,11,04,16.80
2014,06,05,11,05,16.80
2014,06,05,11,06,16.90
2014,06,05,11,07,16.90
2014,06,05,11,08,17.00
2014,06,05,11,09,17.10
2014,06,05,11,10,17.10
2014,06,05,11,11,17.20
2014,06,05,11,12,17.20
2014,06,05,11,13,17.10
2014,06,05,11,14,17.10
2014,06,05,11,15,17.10
2014,06,05,11,16,17.10
2014,06,05,11,17,17.10
2014,06,05,11,18,17.20
2014,06,05,11,19,17.20
2014,06,05,11,20,17.30
2014,06,05,11,21,17.30
2014,06,05,11,22,17.40
2014,06,05,11,23,17.40
2014,06,05,11,24,17.40
2014,06,05,11,25,17.40
2014,06,05,11,26,17.30
2014,06,05,11,27,17.30
2014,06,05,11,28,17.30
2014,06,05,11,29,17.40
2014,06,05,11,30,17.50
2014,06,05,11,31,17.50
2014,06,05,11,32,17.60
2014,06,05,11,33,17.70
2014,06,05,11,34,17.70
2014,06,05,11,35,17.80
2014,06,05,11,36,17.80
2014,06,05,11,37,17.80
2014,06,05,11,38,17.80
2014,06,05,11,39,17.80
2014,06,05,11,40,17.80
2014,06,05,11,41,17.90
2014,06,05,11,42,18.00
2014,06,05,11,43,18.00
2014,06,05,11,44,18.10
2014,06,05,11,45,18.10
2014,06,05,11,46,18.10
2014,06,05,11,47,18.10
2014,06,05,11,48,18.20
2014,06,05,11,49,18.20
2014,06,05,11,50,18.20
2014,06,05,11,51,18.20
2014,06,05,11,52,18.20
2014,06,05,11,53,18.20
2014,06,05,11,54,18.20
2014,06,05,11,55,18.20
2014,06,05,11,56,18.20
2014,06,05,11,57,18.20
2014,06,05,11,58,18.30
2014,06,05,11,59,18.30
2014,06,05,12,00,18.30
2014,06,05,12,01,18.20
2014,06,05,12,02,18.20
2014,06,05,12,03,18.20
2014,06,05,12,04,18.20
2014,06,05,12,05,18.20
2014,06,05,12,06,18.20
2014,06,05,12,07,18.20
2014,06,05,12,08,18.20
2014,06,05,12,09,18.10
2014,06,05,12,10,18.10
2014,06,05,12,11,18.20
2014,06,05,12,12,18.20
2014,06,05,12,13,18.20
2014,06,05,12,14,18.20
2014,06,05,12,15,18.30
2014,06,05,12,16,18.30
2014,06,05,12,17,18.30
2014,06,05,12,18,18.20
2014,06,05,12,19,18.20
2014,06,05,12,20,18.20
2014,06,05,12,21,18.20
2014,06,05,12,22,18.20
2014,06,05,12,23,18.20
2014,06,05,12,24,18.20
2014,06,05,12,25,18.20
2014,06,05,12,26,18.10
2014,06,05,12,27,18.10
2014,06,05,12,28,18.10
2014,06,05,12,29,18.20
2014,06,05,12,30,18.20
2014,06,05,12,31,18.20
2014,06,05,12,32,18.20
2014,06,05,12,33,18.20
2014,06,05,12,34,18.20
2014,06,05,12,35,18.20
2014,06,05,12,36,18.20
2014,06,05,12,37,18.30
2014,06,05,12,38,18.30
2014,06,05,12,39,18.30
2014,06,05,12,40,18.30
2014,06,05,12,41,18.20
2014,06,05,12,42,18.10
2014,06,05,12,43,18.00
2014,06,05,12,44,18.00
2014,06,05,12,45,18.00
2014,06,05,12,46,18.10
2014,06,05,12,47,18.20
2014,06,05,12,48,18.20
2014,06,05,12,49,18.20
2014,06,05,12,50,18.20
2014,06,05,12,51,18.20
2014,06,05,12,52,18.20
2014,06,05,12,53,18.30
2014,06,05,12,54,18.40
2014,06,05,12,55,18.50
2014,06,05,12,56,18.60
2014,06,05,12,57,18.60
2014,06,05,12,58,18.60
2014,06,05,12,59,18.70
2014,06,05,13,00,18.70
2014,06,05,13,01,18.80
2014,06,05,13,02,18.90
2014,06,05,13,03,19.00
2014,06,05,13,04,19.10
2014,06,05,13,05,19.20
2014,06,05,13,06,19.30
2014,06,05,13,07,19.30
2014,06,05,13,08,19.40
2014,06,05,13,09,19.40
2014,06,05,13,10,19.40
2014,06,05,13,11,19.30
2014,06,05,13,12,19.30
2014,06,05,13,13,19.30
2014,06,05,13,14,19.20
2014,06,05,13,15,19.20
2014,06,05,13,16,19.30
2014,06,05,13,17,19.20
2014,06,05,13,18,19.20
2014,06,05,13,19,19.20
2014,06,05,13,20,19.20
2014,06,05,13,21,19.10
2014,06,05,13,22,19.10
2014,06,05,13,23,19.00
2014,06,05,13,24,18.90
2014,06,05,13,25,18.90
2014,06,05,13,26,18.90
2014,06,05,13,27,18.80
2014,06,05,13,28,18.80
2014,06,05,13,29,18.80
2014,06,05,13,30,18.80
2014,06,05,13,31,18.80
2014,06,05,13,32,18.70
2014,06,05,13,33,18.70
2014,06,05,13,34,18.70
2014,06,05,13,35,18.70
2014,06,05,13,36,18.70
2014,06,05,13,37,18.70
2014,06,05,13,38,18.70
2014,06,05,13,39,18.60
2014,06,05,13,40,18.60
2014,06,05,13,41,18.70
2014,06,05,13,42,18.80
2014,06,05,13,43,18.90
2014,06,05,13,44,18.90
2014,06,05,13,45,19.00
2014,06,05,13,46,19.10
2014,06,05,13,47,19.30
2014,06,05,13,48,19.40
2014,06,05,13,49,19.40
2014,06,05,13,50,19.50
2014,06,05,13,51,19.50
2014,06,05,13,52,19.50
2014,06,05,13,53,19.60
2014,06,05,13,54,19.60
2014,06,05,13,55,19.60
2014,06,05,13,56,19.70
2014,06,05,13,57,19.70
2014,06,05,13,58,19.60
2014,06,05,13,59,19.50
2014,06,05,14,00,19.40
2014,06,05,14,01,19.40
2014,06,05,14,02,19.30
2014,06,05,14,03,19.30
2014,06,05,14,04,19.20
2014,06,05,14,05,19.20
2014,06,05,14,06,19.20
2014,06,05,14,07,19.20
2014,06,05,14,08,19.20
2014,06,05,14,09,19.10
2014,06,05,14,10,19.10
2014,06,05,14,11,19.20
2014,06,05,14,12,19.30
2014,06,05,14,13,19.40
2014,06,05,14,14,19.40
2014,06,05,14,15,19.50
2014,06,05,14,16,19.60
2014,06,05,14,17,19.60
2014,06,05,14,18,19.80
2014,06,05,14,19,19.80
2014,06,05,14,20,19.90
2014,06,05,14,21,20.00
2014,06,05,14,22,20.00
2014,06,05,14,23,20.10
2014,06,05,14,24,20.10
2014,06,05,14,25,20.20
2014,06,05,14,26,20.20
2014,06,05,14,27,20.20
2014,06,05,14,28,20.20
2014,06,05,14,29,20.20
2014,06,05,14,30,20.20
2014,06,05,14,31,20.20
2014,06,05,14,32,20.10
2014,06,05,14,33,20.10
2014,06,05,14,34,20.10
2014,06,05,14,35,20.10
2014,06,05,14,36,20.20
2014,06,05,14,37,20.20
2014,06,05,14,38,20.20
2014,06,05,14,39,20.10
2014,06,05,14,40,20.10
2014,06,05,14,41,20.10
2014,06,05,14,42,20.10
2014,06,05,14,43,20.10
2014,06,05,14,44,20.20
2014,06,05,14,45,20.20
2014,06,05,14,46,20.20
2014,06,05,14,47,20.30
2014,06,05,14,48,20.30
2014,06,05,14,49,20.30
2014,06,05,14,50,20.30
2014,06,05,14,51,20.30
2014,06,05,14,52,20.30
2014,06,05,14,53,20.20
2014,06,05,14,54,20.20
2014,06,05,14,55,20.20
2014,06,05,14,56,20.20
2014,06,05,14,57,20.30
2014,06,05,14,58,20.30
2014,06,05,14,59,20.30
2014,06,05,15,00,20.20
2014,06,05,15,01,20.20
2014,06,05,15,02,20.00
2014,06,05,15,03,19.90
2014,06,05,15,04,19.90
2014,06,05,15,05,19.80
2014,06,05,15,06,19.80
2014,06,05,15,07,19.80
2014,06,05,15,08,19.80
2014,06,05,15,09,19.80
2014,06,05,15,10,19.80
2014,06,05,15,11,19.80
2014,06,05,15,12,19.90
2014,06,05,15,13,20.00
2014,06,05,15,14,20.00
2014,06,05,15,15,20.10
2014,06,05,15,16,20.20
2014,06,05,15,17,20.20
2014,06,05,15,18,20.20
2014,06,05,15,19,20.20
2014,06,05,15,20,20.20
2014,06,05,15,21,20.30
2014,06,05,15,22,20.30
2014,06,05,15,23,20.30
2014,06,05,15,24,20.30
2014,06,05,15,25,20.30
2014,06,05,15,26,20.30
2014,06,05,15,27,20.30
2014,06,05,15,28,20.30
2014,06,05,15,29,20.30
2014,06,05,15,30,20.40
2014,06,05,15,31,20.40
2014,06,05,15,32,20.40
2014,06,05,15,33,20.50
2014,06,05,15,34,20.60
2014,06,05,15,35,20.60
2014,06,05,15,36,20.70
2014,06,05,15,37,20.70
2014,06,05,15,38,20.70
2014,06,05,15,39,20.70
2014,06,05,15,40,20.70
2014,06,05,15,41,20.70
2014,06,05,15,42,20.70
2014,06,05,15,43,20.70
2014,06,05,15,44,20.70
2014,06,05,15,45,20.70
2014,06,05,15,46,20.70
2014,06,05,15,47,20.70
2014,06,05,15,48,20.70
2014,06,05,15,49,20.70
2014,06,05,15,50,20.70
2014,06,05,15,51,20.70
2014,06,05,15,52,20.70
2014,06,05,15,53,20.70
2014,06,05,15,54,20.70
2014,06,05,15,55,20.70
2014,06,05,15,56,20.70
2014,06,05,15,57,20.60
2014,06,05,15,58,20.50
2014,06,05,15,59,20.50
2014,06,05,16,00,20.50
2014,06,05,16,01,20.40
2014,06,05,16,02,20.40
2014,06,05,16,03,20.30
2014,06,05,16,04,20.30
2014,06,05,16,05,20.30
2014,06,05,16,06,20.30
2014,06,05,16,07,20.20
2014,06,05,16,08,20.20
2014,06,05,16,09,20.20
2014,06,05,16,10,20.20
2014,06,05,16,11,20.30
2014,06,05,16,12,20.40
2014,06,05,16,13,20.50
2014,06,05,16,14,20.60
2014,06,05,16,15,20.70
2014,06,05,16,16,20.80
2014,06,05,16,17,20.80
2014,06,05,16,18,20.90
2014,06,05,16,19,20.90
2014,06,05,16,20,21.00
2014,06,05,16,21,21.00
2014,06,05,16,22,21.00
2014,06,05,16,23,21.00
2014,06,05,16,24,20.90
2014,06,05,16,25,20.90
2014,06,05,16,26,20.90
2014,06,05,16,27,20.90
2014,06,05,16,28,20.90
2014,06,05,16,29,21.00
2014,06,05,16,30,21.00
2014,06,05,16,31,21.10
2014,06,05,16,32,21.10
2014,06,05,16,33,21.10
2014,06,05,16,34,21.10
2014,06,05,16,35,21.10
2014,06,05,16,36,21.20
2014,06,05,16,37,21.20
2014,06,05,16,38,21.20
2014,06,05,16,39,21.20
2014,06,05,16,40,21.20
2014,06,05,16,41,21.20
2014,06,05,16,42,21.30
2014,06,05,16,43,21.30
2014,06,05,16,44,21.30
2014,06,05,16,45,21.30
2014,06,05,16,46,21.20
2014,06,05,16,47,21.20
2014,06,05,16,48,21.20
2014,06,05,16,49,21.20
2014,06,05,16,50,21.10
2014,06,05,16,51,21.00
2014,06,05,16,52,21.00
2014,06,05,16,53,20.90
2014,06,05,16,54,20.90
2014,06,05,16,55,20.90
2014,06,05,16,56,21.00
2014,06,05,16,57,21.00
2014,06,05,16,58,21.00
2014,06,05,16,59,21.10
2014,06,05,17,00,21.10
2014,06,05,17,01,21.00
2014,06,05,17,02,20.90
2014,06,05,17,03,20.90
2014,06,05,17,04,20.80
2014,06,05,17,05,20.90
2014,06,05,17,06,20.90
2014,06,05,17,07,20.90
2014,06,05,17,08,20.90
2014,06,05,17,09,20.90
2014,06,05,17,10,20.90
2014,06,05,17,11,20.90
2014,06,05,17,12,20.90
2014,06,05,17,13,20.90
2014,06,05,17,14,20.90
2014,06,05,17,15,20.90
2014,06,05,17,16,20.90
2014,06,05,17,17,20.90
2014,06,05,17,18,21.00
2014,06,05,17,19,21.00